| time (UTC) | temp F | wind direction | speed MPH | gust MPH | rain 1hr in | rain 24hr in | rain mn in | humidity % | barometer mb |
| 20260901224203 | 80 | 360 | 0.0 | 1.0 | 0.00 | 0.06 | 0.04 | 85 | 1013.3 |
| 20260901223202 | 81 | 360 | 0.0 | 1.0 | 0.00 | 0.06 | 0.04 | 84 | 1013.4 |
| 20260901222224 | 81 | 359 | 0.0 | 2.0 | 0.00 | 0.06 | 0.04 | 84 | 1013.2 |
| 20260901221202 | 81 | 359 | 1.0 | 4.0 | 0.00 | 0.06 | 0.04 | 84 | 1013.1 |
| 20260901220202 | 81 | 359 | 0.0 | 3.0 | 0.00 | 0.06 | 0.04 | 84 | 1013.2 |
| 20260901215203 | 81 | 360 | 0.0 | 1.0 | 0.00 | 0.06 | 0.04 | 83 | 1013.2 |
| 20260901214225 | 81 | 253 | 0.0 | 2.0 | 0.00 | 0.06 | 0.04 | 83 | 1013.3 |
| 20260901212224 | 82 | 360 | 0.0 | 1.0 | 0.00 | 0.06 | 0.04 | 82 | 1013.1 |
| 20260901211224 | 82 | 359 | 0.0 | 1.0 | 0.00 | 0.06 | 0.04 | 82 | 1013.1 |
| 20260901210203 | 82 | 360 | 0.0 | 1.0 | 0.00 | 0.06 | 0.04 | 83 | 1013.1 |
| 20260901205225 | 82 | 360 | 0.0 | 2.0 | 0.00 | 0.06 | 0.04 | 83 | 1013.0 |
| 20260901204202 | 81 | 360 | 0.0 | 3.0 | 0.00 | 0.06 | 0.04 | 82 | 1013.2 |
| 20260901203202 | 81 | 360 | 0.0 | 3.0 | 0.00 | 0.06 | 0.04 | 82 | 1013.2 |
| 20260901202202 | 81 | 359 | 0.0 | 2.0 | 0.00 | 0.06 | 0.04 | 83 | 1013.2 |
| 20260901201202 | 81 | 360 | 0.0 | 2.0 | 0.00 | 0.06 | 0.04 | 83 | 1013.3 |
| 20260901200224 | 81 | 359 | 0.0 | 2.0 | 0.00 | 0.06 | 0.04 | 83 | 1013.4 |
| 20260901195202 | 82 | 359 | 0.0 | 2.0 | 0.00 | 0.06 | 0.04 | 83 | 1013.3 |
| 20260901194204 | 82 | 360 | 0.0 | 4.0 | 0.00 | 0.07 | 0.04 | 82 | 1013.3 |
| 20260901193203 | 82 | 360 | 0.0 | 2.0 | 0.00 | 0.07 | 0.04 | 83 | 1013.2 |
| 20260901192202 | 83 | 360 | 0.0 | 5.0 | 0.00 | 0.07 | 0.04 | 82 | 1013.2 |
| 20260901191203 | 83 | 359 | 0.0 | 5.0 | 0.00 | 0.07 | 0.04 | 82 | 1013.3 |
| 20260901190202 | 82 | 358 | 2.0 | 4.0 | 0.00 | 0.07 | 0.04 | 83 | 1013.4 |
| 20260901185203 | 82 | 360 | 0.0 | 0.0 | 0.00 | 0.07 | 0.04 | 83 | 1013.4 |
| 20260901184202 | 82 | 360 | 0.0 | 0.0 | 0.00 | 0.07 | 0.04 | 83 | 1013.5 |
| 20260901183203 | 81 | 360 | 0.0 | 5.0 | 0.00 | 0.09 | 0.04 | 83 | 1013.5 |
| 20260901182202 | 81 | 360 | 0.0 | 8.0 | 0.00 | 0.09 | 0.04 | 84 | 1013.5 |
| 20260901181247 | 81 | 359 | 1.0 | 3.0 | 0.00 | 0.09 | 0.04 | 85 | 1013.4 |
| 20260901180203 | 81 | 359 | 1.0 | 4.0 | 0.00 | 0.09 | 0.04 | 85 | 1013.3 |
| 20260901175223 | 81 | 359 | 0.0 | 6.0 | 0.00 | 0.09 | 0.04 | 85 | 1013.2 |
| 20260901174204 | 81 | 360 | 0.0 | 3.0 | 0.00 | 0.10 | 0.04 | 84 | 1013.1 |
| 20260901173223 | 82 | 359 | 1.0 | 8.0 | 0.00 | 0.10 | 0.04 | 83 | 1013.0 |
| 20260901172224 | 82 | 359 | 2.0 | 5.0 | 0.00 | 0.10 | 0.04 | 83 | 1012.8 |
| 20260901171203 | 82 | 359 | 1.0 | 4.0 | 0.00 | 0.11 | 0.04 | 83 | 1012.9 |
| 20260901170202 | 82 | 359 | 2.0 | 9.0 | 0.00 | 0.11 | 0.04 | 83 | 1012.8 |
| 20260901165225 | 82 | 359 | 0.0 | 6.0 | 0.00 | 0.11 | 0.04 | 81 | 1012.8 |
| 20260901164202 | 83 | 359 | 2.0 | 6.0 | 0.00 | 0.11 | 0.04 | 81 | 1013.0 |
| 20260901163202 | 83 | 359 | 5.0 | 8.0 | 0.00 | 0.11 | 0.04 | 83 | 1012.9 |
| 20260901162203 | 82 | 359 | 4.0 | 9.0 | 0.00 | 0.11 | 0.04 | 84 | 1012.8 |
| 20260901161223 | 81 | 358 | 3.0 | 6.0 | 0.00 | 0.11 | 0.04 | 85 | 1012.9 |
| 20260901160202 | 80 | 359 | 3.0 | 6.0 | 0.00 | 0.11 | 0.04 | 87 | 1012.9 |
| 20260901155203 | 80 | 355 | 3.0 | 5.0 | 0.00 | 0.11 | 0.04 | 88 | 1012.9 |
| 20260901154203 | 79 | 359 | 3.0 | 8.0 | 0.00 | 0.11 | 0.04 | 88 | 1012.9 |
| 20260901153223 | 79 | 359 | 5.0 | 9.0 | 0.00 | 0.11 | 0.04 | 90 | 1012.9 |
| 20260901152204 | 78 | 359 | 4.0 | 8.0 | 0.00 | 0.11 | 0.04 | 92 | 1013.0 |
| 20260901151202 | 77 | 359 | 1.0 | 5.0 | 0.00 | 0.11 | 0.04 | 93 | 1012.8 |
| 20260901150203 | 76 | 359 | 2.0 | 8.0 | 0.00 | 0.11 | 0.04 | 94 | 1012.8 |
| 20260901145202 | 76 | 359 | 0.0 | 5.0 | 0.00 | 0.11 | 0.04 | 95 | 1012.8 |
| 20260901144203 | 75 | 359 | 1.0 | 5.0 | 0.00 | 0.11 | 0.04 | 95 | 1012.7 |
| 20260901143203 | 75 | 359 | 3.0 | 5.0 | 0.00 | 0.11 | 0.04 | 95 | 1012.7 |
| 20260901142223 | 75 | 359 | 0.0 | 8.0 | 0.00 | 0.12 | 0.04 | 96 | 1012.9 |
| 20260901141202 | 75 | 359 | 1.0 | 5.0 | 0.00 | 0.12 | 0.04 | 96 | 1013.0 |
| 20260901140206 | 74 | 359 | 1.0 | 6.0 | 0.00 | 0.13 | 0.04 | 96 | 1013.0 |
| 20260901135202 | 74 | 359 | 0.0 | 5.0 | 0.00 | 0.14 | 0.04 | 96 | 1013.0 |
| 20260901134203 | 74 | 359 | 2.0 | 5.0 | 0.00 | 0.18 | 0.04 | 96 | 1013.0 |
| 20260901133203 | 73 | 359 | 2.0 | 6.0 | 0.00 | 0.20 | 0.04 | 96 | 1013.0 |
| 20260901132202 | 73 | 359 | 2.0 | 5.0 | 0.00 | 0.22 | 0.04 | 96 | 1013.1 |
| 20260901131204 | 73 | 359 | 3.0 | 5.0 | 0.00 | 0.24 | 0.04 | 96 | 1013.2 |
| 20260901130203 | 73 | 360 | 0.0 | 5.0 | 0.00 | 0.26 | 0.04 | 96 | 1013.3 |
| 20260901125224 | 73 | 359 | 1.0 | 6.0 | 0.00 | 0.28 | 0.04 | 96 | 1013.3 |
| 20260901124202 | 72 | 359 | 2.0 | 8.0 | 0.00 | 0.29 | 0.04 | 96 | 1013.3 |
| 20260901123204 | 72 | 359 | 2.0 | 5.0 | 0.00 | 0.34 | 0.04 | 96 | 1013.3 |
| 20260901122202 | 72 | 359 | 0.0 | 5.0 | 0.00 | 0.38 | 0.04 | 96 | 1013.2 |
| 20260901121204 | 72 | 359 | 0.0 | 4.0 | 0.00 | 0.44 | 0.04 | 96 | 1013.0 |
| 20260901120203 | 71 | 359 | 0.0 | 5.0 | 0.00 | 0.47 | 0.04 | 96 | 1012.9 |
| 20260901115202 | 71 | 360 | 0.0 | 4.0 | 0.00 | 0.47 | 0.04 | 96 | 1012.9 |
| 20260901114203 | 71 | 360 | 0.0 | 3.0 | 0.00 | 0.47 | 0.04 | 96 | 1012.9 |
| 20260901113202 | 71 | 359 | 0.0 | 4.0 | 0.00 | 0.47 | 0.04 | 96 | 1012.8 |
| 20260901112203 | 70 | 359 | 0.0 | 1.0 | 0.00 | 0.48 | 0.04 | 96 | 1012.8 |
| 20260901111203 | 70 | 360 | 0.0 | 0.0 | 0.00 | 0.48 | 0.04 | 96 | 1012.7 |
| 20260901110225 | 70 | 360 | 0.0 | 2.0 | 0.00 | 0.48 | 0.04 | 96 | 1012.7 |
| 20260901105203 | 70 | 359 | 0.0 | 2.0 | 0.00 | 0.49 | 0.04 | 96 | 1012.6 |
| 20260901104202 | 70 | 360 | 0.0 | 1.0 | 0.00 | 0.50 | 0.04 | 96 | 1012.6 |
| 20260901103203 | 70 | 359 | 0.0 | 3.0 | 0.00 | 0.50 | 0.04 | 96 | 1012.5 |
| 20260901102202 | 70 | 360 | 0.0 | 1.0 | 0.00 | 0.51 | 0.04 | 96 | 1012.4 |
| 20260901101202 | 70 | 360 | 0.0 | 0.0 | 0.00 | 0.51 | 0.04 | 96 | 1012.2 |
| 20260901100203 | 70 | 360 | 0.0 | 0.0 | 0.00 | 0.52 | 0.04 | 96 | 1012.1 |
| 20260901095202 | 70 | 360 | 0.0 | 0.0 | 0.00 | 0.52 | 0.04 | 96 | 1012.0 |
| 20260901094202 | 70 | 360 | 0.0 | 0.0 | 0.00 | 0.52 | 0.04 | 96 | 1012.1 |
| 20260901093202 | 70 | 360 | 0.0 | 0.0 | 0.00 | 0.52 | 0.04 | 96 | 1012.1 |
| 20260901092202 | 70 | 360 | 0.0 | 0.0 | 0.00 | 0.52 | 0.04 | 96 | 1012.1 |
| 20260901091203 | 70 | 360 | 0.0 | 0.0 | 0.00 | 0.52 | 0.04 | 96 | 1012.0 |
| 20260901090203 | 70 | 360 | 0.0 | 0.0 | 0.00 | 0.52 | 0.04 | 96 | 1012.1 |
| 20260901085203 | 69 | 360 | 0.0 | 0.0 | 0.02 | 0.52 | 0.04 | 96 | 1012.1 |
| 20260901084204 | 69 | 360 | 0.0 | 0.0 | 0.02 | 0.52 | 0.04 | 96 | 1011.9 |
| 20260901083205 | 69 | 360 | 0.0 | 0.0 | 0.02 | 0.52 | 0.04 | 96 | 1011.9 |
| 20260901082224 | 70 | 360 | 0.0 | 0.0 | 0.01 | 0.51 | 0.03 | 96 | 1012.0 |
| 20260901081223 | 70 | 360 | 0.0 | 0.0 | 0.01 | 0.51 | 0.03 | 96 | 1012.0 |
| 20260901080203 | 69 | 360 | 0.0 | 0.0 | 0.00 | 0.50 | 0.02 | 96 | 1012.2 |
| 20260901075202 | 69 | 360 | 0.0 | 0.0 | 0.02 | 0.50 | 0.02 | 96 | 1012.1 |
| 20260901074203 | 69 | 360 | 0.0 | 0.0 | 0.02 | 0.50 | 0.02 | 96 | 1012.2 |
| 20260901073224 | 69 | 360 | 0.0 | 0.0 | 0.00 | 0.49 | 0.00 | 96 | 1012.3 |
| 20260901072202 | 69 | 360 | 0.0 | 0.0 | 0.00 | 0.49 | 0.00 | 96 | 1012.4 |
| 20260901071203 | 69 | 360 | 0.0 | 0.0 | 0.00 | 0.49 | 0.00 | 96 | 1012.7 |
| 20260901070202 | 69 | 360 | 0.0 | 0.0 | 0.00 | 0.49 | 0.00 | 96 | 1012.6 |
| 20260901065203 | 69 | 360 | 0.0 | 0.0 | 0.00 | 0.50 | 0.00 | 96 | 1012.8 |
| 20260901064225 | 69 | 360 | 0.0 | 0.0 | 0.00 | 0.52 | 0.00 | 96 | 1012.9 |
| 20260901063203 | 69 | 360 | 0.0 | 0.0 | 0.00 | 0.54 | 0.00 | 96 | 1013.0 |
| 20260901062202 | 69 | 360 | 0.0 | 0.0 | 0.00 | 0.54 | 0.00 | 96 | 1013.2 |
| 20260901061203 | 69 | 360 | 0.0 | 0.0 | 0.00 | 0.55 | 0.00 | 96 | 1013.4 |
| 20260901060203 | 69 | 360 | 0.0 | 0.0 | 0.00 | 0.56 | 0.00 | 96 | 1013.5 |
| 20260901055203 | 69 | 360 | 0.0 | 0.0 | 0.00 | 0.57 | 0.00 | 96 | 1013.6 |
| 20260901054203 | 69 | 360 | 0.0 | 0.0 | 0.00 | 0.57 | 0.00 | 96 | 1013.7 |
| 20260901053202 | 69 | 360 | 0.0 | 0.0 | 0.00 | 0.57 | 0.00 | 96 | 1013.7 |
| 20260901052225 | 69 | 360 | 0.0 | 0.0 | 0.00 | 0.57 | 0.00 | 95 | 1013.8 |
| 20260901051202 | 69 | 360 | 0.0 | 0.0 | 0.00 | 0.57 | 0.00 | 95 | 1013.9 |
| 20260901050204 | 69 | 360 | 0.0 | 0.0 | 0.00 | 0.57 | 0.00 | 95 | 1014.0 |
| 20260901045202 | 69 | 360 | 0.0 | 0.0 | 0.00 | 0.57 | 0.00 | 95 | 1013.9 |
| 20260901043203 | 70 | 360 | 0.0 | 0.0 | 0.00 | 0.57 | 0.00 | 95 | 1014.5 |
| 20260901042202 | 69 | 360 | 0.0 | 0.0 | 0.00 | 0.58 | 0.00 | 95 | 1014.5 |
| 20260901041223 | 69 | 360 | 0.0 | 0.0 | 0.00 | 0.59 | 0.00 | 95 | 1014.6 |
| 20260901040202 | 69 | 360 | 0.0 | 0.0 | 0.00 | 0.59 | 0.00 | 95 | 1014.6 |
| 20260901035204 | 69 | 360 | 0.0 | 0.0 | 0.00 | 0.59 | 0.59 | 95 | 1014.6 |
| 20260901034202 | 69 | 360 | 0.0 | 0.0 | 0.00 | 0.59 | 0.59 | 95 | 1014.6 |
| 20260901033203 | 69 | 360 | 0.0 | 0.0 | 0.00 | 0.59 | 0.59 | 95 | 1014.7 |
| 20260901032223 | 69 | 360 | 0.0 | 0.0 | 0.00 | 0.59 | 0.59 | 95 | 1014.9 |
| 20260901031227 | 70 | 360 | 0.0 | 0.0 | 0.00 | 0.59 | 0.59 | 95 | 1014.7 |
| 20260901030202 | 70 | 360 | 0.0 | 0.0 | 0.00 | 0.59 | 0.59 | 95 | 1014.9 |
| 20260901025226 | 70 | 360 | 0.0 | 0.0 | 0.00 | 0.59 | 0.59 | 95 | 1015.1 |
| 20260901024205 | 70 | 360 | 0.0 | 0.0 | 0.00 | 0.59 | 0.59 | 95 | 1015.1 |
| 20260901023202 | 71 | 360 | 0.0 | 0.0 | 0.00 | 0.59 | 0.59 | 95 | 1015.1 |
| 20260901022223 | 71 | 360 | 0.0 | 0.0 | 0.00 | 0.59 | 0.59 | 95 | 1015.4 |
| 20260901021225 | 71 | 360 | 0.0 | 0.0 | 0.00 | 0.59 | 0.59 | 95 | 1015.5 |
| 20260901020223 | 71 | 360 | 0.0 | 0.0 | 0.00 | 0.59 | 0.59 | 95 | 1015.4 |
| 20260901015203 | 71 | 360 | 0.0 | 0.0 | 0.00 | 0.59 | 0.59 | 95 | 1015.4 |
| 20260901014204 | 71 | 360 | 0.0 | 0.0 | 0.00 | 0.59 | 0.59 | 95 | 1015.5 |
| 20260901013202 | 71 | 360 | 0.0 | 0.0 | 0.00 | 0.59 | 0.59 | 95 | 1015.5 |
| 20260901012224 | 71 | 360 | 0.0 | 0.0 | 0.00 | 0.59 | 0.59 | 95 | 1015.6 |
| 20260901011202 | 71 | 360 | 0.0 | 0.0 | 0.00 | 0.59 | 0.59 | 95 | 1015.7 |
| 20260901010203 | 71 | 360 | 0.0 | 0.0 | 0.00 | 0.59 | 0.59 | 95 | 1015.7 |
| 20260901005202 | 71 | 360 | 0.0 | 0.0 | 0.02 | 0.59 | 0.59 | 95 | 1015.4 |
| 20260901004203 | 71 | 360 | 0.0 | 1.0 | 0.02 | 0.59 | 0.59 | 95 | 1015.3 |
| 20260901003203 | 71 | 360 | 0.0 | 2.0 | 0.00 | 0.57 | 0.57 | 95 | 1015.3 |
| 20260901002202 | 72 | 360 | 0.0 | 0.0 | 0.00 | 0.57 | 0.57 | 95 | 1015.2 |
| 20260901001203 | 72 | 360 | 0.0 | 1.0 | 0.00 | 0.57 | 0.57 | 95 | 1015.2 |
| 20260901000203 | 72 | 360 | 0.0 | 2.0 | 0.00 | 0.57 | 0.57 | 95 | 1015.2 |
| 20260831234202 | 72 | 360 | 0.0 | 0.0 | 0.00 | 0.57 | 0.57 | 95 | 1015.2 |
| 20260831233203 | 72 | 360 | 0.0 | 0.0 | 0.00 | 0.57 | 0.57 | 95 | 1015.2 |
| 20260831232203 | 72 | 360 | 0.0 | 0.0 | 0.00 | 0.57 | 0.57 | 95 | 1015.2 |
| 20260831231202 | 72 | 360 | 0.0 | 0.0 | 0.00 | 0.58 | 0.57 | 95 | 1015.0 |
| 20260831230224 | 72 | 360 | 0.0 | 1.0 | 0.00 | 0.58 | 0.57 | 95 | 1015.2 |
| 20260831225203 | 73 | 359 | 0.0 | 1.0 | 0.00 | 0.58 | 0.57 | 95 | 1015.3 |